Regional Weather Roundup
Issued by NWS

Home | Current Version | Previous Version | Text Only | Print | Product List | Glossary On
Versions: 1 2 3 4 5 6 7 8 9 10 11 12 13 14 15 16 17 18 19 20 21 22 23 24 25 26 27
000
ASUS45 KBOU 221107
RWRCO

WEATHER ROUNDUP FOR COLORADO
NATIONAL WEATHER SERVICE DENVER/BOULDER CO
500 AM MDT THU JUN 22 2017

NOTE: "FAIR" INDICATES FEW OR NO CLOUDS BELOW 12000 FEET WITH NO
SIGNIFICANT WEATHER AND/OR OBSTRUCTIONS TO VISIBILITY.

COZ001>005-013-030-031-221200-
...NORTHWEST COLORADO...

CITY           SKY/WX    TMP DP  RH WIND       PRES   REMARKS
CRAIG          FAIR      53  44  71 E7        30.02F
HAYDEN         FAIR      59  39  47 E8        30.07F
MEEKER         FAIR      58  42  55 NE3       30.05F
RABBIT EARS PA FAIR      52  32  46 W7        30.36R
STEAMBOAT SPGS FAIR      54  42  63 CALM      30.10S
WALDEN         FAIR      54  37  54 E7        30.19S
$$

COZ006>008-011-221200-
...WEST CENTRAL VALLEYS...

CITY           SKY/WX    TMP DP  RH WIND       PRES   REMARKS
GRAND JUNCTION FAIR      74  39  28 E13       29.91S
MONTROSE       FAIR      62  39  42 CALM      30.04R
EAGLE          FAIR      56  37  49 W5        30.14S
RIFLE          FAIR      62  39  42 S7        30.02R
DELTA          FAIR      69  38  32 NE12      29.97F
NUCLA          FAIR      63  32  31 CALM      30.07R
$$

COZ017>023-064>068-221200-
...SOUTHWEST COLORADO...

CITY           SKY/WX    TMP DP  RH WIND       PRES   REMARKS
DURANGO        FAIR      55  34  45 CALM      30.08S
CORTEZ         FAIR      53  42  66 NE6       30.03S
PAGOSA SPRINGS FAIR      56  31  39 CALM      30.18F
TELLURIDE      FAIR      56  32  40 SE8       30.31F
WOLF CREEK PAS FAIR      54  25  32 W3        30.57F
$$

COZ009-010-012-014-032>034-037-058>063-221200-
...CENTRAL COLORADO...

CITY           SKY/WX    TMP DP  RH WIND       PRES   REMARKS
ASPEN          FAIR      53  36  52 SW10      30.18F
BUENA VISTA    FAIR      55  32  42 NW3       30.21S
COPPER MTN     FAIR      54  30  40 CALM      30.52F
BERTHOUD PASS  MOCLDY    43  30  61 NW32G38   30.49F
COTTONWOOD PAS FAIR      63  23  22 SW8       30.35S
GUNNISON       FAIR      46  37  71 E3        30.23S
KREMMLING      NOT AVBL
LEADVILLE      FAIR      42  29  59 NE5       30.34F
MONARCH PASS   FAIR      52  28  40 SW15      30.62F
SALIDA         FAIR      57  33  40 W7        30.25S
SUNLIGHT       FAIR      54  28  37 S6        30.44R
WILKERSON PASS FAIR      52  27  37 SW6       30.48S
$$

COZ069>075-221200-
...SAN LUIS VALLEY/SANGRE DE CRISTO MOUNTAINS...

CITY           SKY/WX    TMP DP  RH WIND       PRES   REMARKS
ALAMOSA        FAIR      47  43  86 NE3       30.17R
DEL NORTE      FAIR      58  32  37 W16       30.20S
LA VETA PASS   FAIR      57  32  38 SW15G26   30.47S
SAGUACHE       FAIR      57  32  38 NW14      30.20S
$$

COZ035-036-038>040-221200-
...NORTHERN COLORADO FRONT RANGE...

CITY           SKY/WX    TMP DP  RH WIND       PRES   REMARKS
DENVER INTL AP FAIR      70  38  31 SW14      29.92R
DMNS CITY PARK   N/A     69  39  33 S7        29.94R
AURORA         PTCLDY    68  38  33 SW13      29.95R
FRONT RANGE AP FAIR      72  37  28 SW15G22   29.93S
ERIE MUNI ARPT FAIR      76  33  21 W20G28    29.92R
BOULDER MUN AP FAIR      81  36  19 SW8G16    29.93R
CENTENNIAL     FAIR      69  37  30 W6        29.97R
BROOMFIELD     FAIR      79  36  21 W23G43    29.99R
FORT COLLINS   FAIR      60  50  69 CALM      29.89R
LONGMONT       FAIR      82  36  19 SW17      29.91S
$$

COZ041-046-047-076>085-087-088-221200-
...PIKES PEAK/PALMER DIVIDE AND SOUTHERN FOOTHILLS...

CITY           SKY/WX    TMP DP  RH WIND       PRES   REMARKS
COLO. SPRINGS  FAIR      67  38  34 N7        30.01S
A. F. ACADEMY  CLOUDY    60  35  39 NW7       30.03F
SCHRIEVER AFB  NOT AVBL
CHEYENNE MTN   NOT AVBL
ELLICOTT       FAIR     N/A N/A N/A S3        29.99S
FALCON           N/A     61  33  34 W13       30.07S
FORT CARSON    MOCLDY    63  39  41 S6        29.97R
LIMON          FAIR      50  40  68 N8        29.93F
MONUMENT HILL  FAIR      63  34  34 SW10      30.09S
CANON CITY     CLEAR     72  37  28 SW9       29.95S
WALSENBURG     FAIR      66  39  37 MISG      30.00S
TRINIDAD       FAIR      69  47  45 W10       30.00F
$$

COZ042>045-048>051-090-091-221200-
...NORTHEAST COLORADO...

CITY           SKY/WX    TMP DP  RH WIND       PRES   REMARKS
GREELEY ARPT   FAIR      58  47  66 N3        29.87R
AKRON          FAIR      71  39  31 SW15      29.83F
BURLINGTON     FAIR      69  53  56 SW16      29.83F
WRAY           FAIR      66  50  55 W12       29.75F
YUMA           NOT AVBL
STERLING       FAIR      59  50  72 S7        29.78S
HOLYOKE        NOT AVBL
FORT MORGAN    FAIR      60  42  51 W6        29.84S
$$

COZ086-089-092>099-221200-
...SOUTHEAST COLORADO...

CITY           SKY/WX    TMP DP  RH WIND       PRES   REMARKS
PUEBLO         FAIR      58  47  66 N8        29.89F
LA JUNTA       FAIR      73  54  51 SW18      29.86F
LAMAR          FAIR      73  54  51 SW22G30   29.79F
SPRINGFIELD      N/A     65  55  70 SW18G28   29.88F
$$




USA.gov is the U.S. government's official web portal to all federal, state and local government web resources and services.